Location: Newark
(48.6461°N, 4.3644°W)
Time: 11:25:22
(UTC+00:00)

STARLINK 1062 - Pass Details

Date: 12 December 2019
Orbit: 548 x 551 km, 53.0° (Epoch: 19 January)

Event Time Altitude Azimuth Distance (km) Brightness Sun altitude
Exits shadow 04:18:18 12° 115° (ESE) 1,713 6.7 -35.5°
Drops below altitude 10° 04:18:40 10° 115° (ESE) 1,857 6.9 -35.4°
Enters shadow 05:19:44 -61° 310° (NW) 11,739 10.3 -25.4°
